| time (UTC) | temp F | wind direction | speed MPH | gust MPH | rain 1hr in | rain 24hr in | rain mn in | humidity % | barometer mb |
| 20260902221003 | 70 | 135 | 2.0 | 6.0 | 0.00 | 0.00 | 0.00 | 68 | 1019.1 |
| 20260902220459 | 70 | 109 | 2.0 | 5.0 | 0.00 | 0.00 | 0.00 | 68 | 1018.9 |
| 20260902220020 | 71 | 154 | 3.0 | 7.0 | 0.00 | 0.00 | 0.00 | 67 | 1018.9 |
| 20260902215008 | 71 | 121 | 3.0 | 8.0 | 0.00 | 0.00 | 0.00 | 67 | 1018.6 |
| 20260902214502 | 71 | 84 | 3.0 | 9.0 | 0.00 | 0.00 | 0.00 | 66 | 1018.5 |
| 20260902214029 | 71 | 61 | 4.0 | 9.0 | 0.00 | 0.00 | 0.00 | 66 | 1018.4 |
| 20260902213513 | 72 | 120 | 3.0 | 7.0 | 0.00 | 0.00 | 0.00 | 65 | 1018.6 |
| 20260902211458 | 73 | 137 | 2.0 | 6.0 | 0.00 | 0.00 | 0.00 | 62 | 1019.0 |
| 20260902211007 | 73 | 92 | 2.0 | 7.0 | 0.00 | 0.00 | 0.00 | 62 | 1019.1 |
| 20260902210511 | 73 | 102 | 2.0 | 7.0 | 0.00 | 0.00 | 0.00 | 62 | 1019.0 |
| 20260902210051 | 74 | 119 | 2.0 | 7.0 | 0.00 | 0.00 | 0.00 | 60 | 1018.9 |
| 20260902205510 | 74 | 93 | 2.0 | 7.0 | 0.00 | 0.00 | 0.00 | 60 | 1019.1 |
| 20260902205003 | 75 | 92 | 1.0 | 7.0 | 0.00 | 0.00 | 0.00 | 57 | 1019.1 |
| 20260902204505 | 75 | 92 | 1.0 | 5.0 | 0.00 | 0.00 | 0.00 | 58 | 1019.0 |
| 20260902204008 | 76 | 135 | 1.0 | 5.0 | 0.00 | 0.00 | 0.00 | 57 | 1019.1 |
| 20260902203506 | 76 | 122 | 1.0 | 4.0 | 0.00 | 0.00 | 0.00 | 57 | 1019.0 |
| 20260902203008 | 76 | 134 | 2.0 | 5.0 | 0.00 | 0.00 | 0.00 | 56 | 1018.8 |
| 20260902202501 | 76 | 82 | 2.0 | 5.0 | 0.00 | 0.00 | 0.00 | 55 | 1018.9 |
| 20260902202004 | 76 | 232 | 2.0 | 5.0 | 0.00 | 0.00 | 0.00 | 55 | 1018.9 |
| 20260902201506 | 76 | 123 | 2.0 | 5.0 | 0.00 | 0.00 | 0.00 | 54 | 1018.8 |
| 20260902200506 | 76 | 25 | 2.0 | 6.0 | 0.00 | 0.00 | 0.00 | 52 | 1018.9 |
| 20260902200030 | 76 | 309 | 2.0 | 5.0 | 0.00 | 0.00 | 0.00 | 53 | 1019.0 |
| 20260902195509 | 77 | 82 | 1.0 | 5.0 | 0.00 | 0.00 | 0.00 | 52 | 1019.1 |
| 20260902195000 | 77 | 348 | 2.0 | 5.0 | 0.00 | 0.00 | 0.00 | 51 | 1019.3 |
| 20260902194501 | 77 | 130 | 2.0 | 5.0 | 0.00 | 0.00 | 0.00 | 53 | 1019.4 |
| 20260902194006 | 77 | 98 | 2.0 | 7.0 | 0.00 | 0.00 | 0.00 | 56 | 1019.5 |
| 20260902193506 | 77 | 132 | 2.0 | 7.0 | 0.00 | 0.00 | 0.00 | 56 | 1019.4 |
| 20260902192536 | 76 | 162 | 3.0 | 6.0 | 0.00 | 0.00 | 0.00 | 58 | 1019.4 |
| 20260902192024 | 76 | 116 | 3.0 | 6.0 | 0.00 | 0.00 | 0.00 | 58 | 1019.3 |
| 20260902191459 | 77 | 130 | 3.0 | 7.0 | 0.00 | 0.00 | 0.00 | 57 | 1019.2 |
| 20260902190518 | 78 | 69 | 4.0 | 9.0 | 0.00 | 0.00 | 0.00 | 56 | 1019.2 |
| 20260902190025 | 78 | 263 | 3.0 | 9.0 | 0.00 | 0.00 | 0.00 | 55 | 1019.2 |
| 20260902185503 | 79 | 132 | 2.0 | 6.0 | 0.00 | 0.02 | 0.00 | 57 | 1019.3 |
| 20260902184502 | 79 | 360 | 2.0 | 5.0 | 0.00 | 0.02 | 0.00 | 55 | 1019.1 |
| 20260902183503 | 79 | 191 | 2.0 | 10.0 | 0.00 | 0.02 | 0.00 | 54 | 1019.4 |
| 20260902183002 | 79 | 53 | 3.0 | 10.0 | 0.00 | 0.02 | 0.00 | 54 | 1019.2 |
| 20260902182502 | 78 | 44 | 2.0 | 6.0 | 0.00 | 0.02 | 0.00 | 54 | 1019.2 |
| 20260902182004 | 78 | 90 | 2.0 | 7.0 | 0.00 | 0.02 | 0.00 | 57 | 1019.4 |
| 20260902181500 | 78 | 86 | 3.0 | 7.0 | 0.00 | 0.02 | 0.00 | 58 | 1019.3 |
| 20260902181000 | 78 | 87 | 4.0 | 7.0 | 0.00 | 0.02 | 0.00 | 56 | 1019.4 |
| 20260902180610 | 78 | 130 | 3.0 | 7.0 | 0.00 | 0.02 | 0.00 | 57 | 1019.5 |
| 20260902180030 | 79 | 134 | 3.0 | 8.0 | 0.00 | 0.02 | 0.00 | 56 | 1019.5 |
| 20260902175458 | 79 | 86 | 3.0 | 8.0 | 0.00 | 0.02 | 0.00 | 52 | 1019.6 |
| 20260902174532 | 79 | 112 | 2.0 | 3.0 | 0.00 | 0.02 | 0.00 | 58 | 1019.6 |
| 20260902173959 | 79 | 221 | 2.0 | 5.0 | 0.00 | 0.02 | 0.00 | 58 | 1019.6 |
| 20260902173513 | 79 | 157 | 2.0 | 5.0 | 0.00 | 0.02 | 0.00 | 59 | 1019.6 |
| 20260902172502 | 78 | 108 | 3.0 | 9.0 | 0.00 | 0.02 | 0.00 | 60 | 1019.6 |
| 20260902171959 | 79 | 70 | 3.0 | 9.0 | 0.00 | 0.02 | 0.00 | 57 | 1019.5 |
| 20260902171503 | 79 | 10 | 3.0 | 8.0 | 0.00 | 0.02 | 0.00 | 57 | 1019.5 |
| 20260902171005 | 78 | 140 | 4.0 | 8.0 | 0.00 | 0.02 | 0.00 | 57 | 1019.6 |
| 20260902170517 | 78 | 146 | 4.0 | 8.0 | 0.00 | 0.02 | 0.00 | 57 | 1019.7 |
| 20260902170027 | 78 | 113 | 3.0 | 7.0 | 0.00 | 0.02 | 0.00 | 59 | 1019.8 |
| 20260902165513 | 78 | 104 | 3.0 | 7.0 | 0.00 | 0.02 | 0.00 | 61 | 1019.7 |
| 20260902165027 | 77 | 62 | 2.0 | 5.0 | 0.00 | 0.02 | 0.00 | 62 | 1019.6 |
| 20260902164506 | 77 | 270 | 2.0 | 7.0 | 0.00 | 0.02 | 0.00 | 62 | 1019.7 |
| 20260902164004 | 77 | 136 | 2.0 | 7.0 | 0.00 | 0.02 | 0.00 | 62 | 1019.6 |
| 20260902163005 | 77 | 153 | 2.0 | 6.0 | 0.00 | 0.02 | 0.00 | 61 | 1019.8 |
| 20260902161525 | 78 | 305 | 2.0 | 7.0 | 0.00 | 0.02 | 0.00 | 61 | 1019.9 |
| 20260902161029 | 78 | 119 | 2.0 | 6.0 | 0.00 | 0.02 | 0.00 | 60 | 1020.0 |
| 20260902160501 | 78 | 165 | 2.0 | 5.0 | 0.00 | 0.02 | 0.00 | 63 | 1020.1 |
| 20260902160007 | 77 | 225 | 2.0 | 5.0 | 0.00 | 0.02 | 0.00 | 62 | 1020.2 |
| 20260902155501 | 77 | 86 | 2.0 | 5.0 | 0.00 | 0.02 | 0.00 | 63 | 1020.1 |
| 20260902155045 | 77 | 27 | 2.0 | 6.0 | 0.00 | 0.02 | 0.00 | 63 | 1020.0 |
| 20260902154503 | 77 | 81 | 2.0 | 6.0 | 0.00 | 0.02 | 0.00 | 63 | 1020.1 |
| 20260902153504 | 76 | 181 | 1.0 | 3.0 | 0.00 | 0.02 | 0.00 | 65 | 1020.1 |
| 20260902153007 | 76 | 295 | 2.0 | 6.0 | 0.00 | 0.02 | 0.00 | 65 | 1020.0 |
| 20260902152511 | 76 | 244 | 2.0 | 7.0 | 0.00 | 0.02 | 0.00 | 64 | 1020.1 |
| 20260902151959 | 76 | 185 | 3.0 | 7.0 | 0.00 | 0.02 | 0.00 | 65 | 1020.0 |
| 20260902150519 | 75 | 346 | 2.0 | 5.0 | 0.00 | 0.02 | 0.00 | 67 | 1020.0 |
| 20260902144502 | 73 | 111 | 3.0 | 7.0 | 0.00 | 0.02 | 0.00 | 68 | 1020.0 |
| 20260902144007 | 73 | 317 | 4.0 | 9.0 | 0.00 | 0.02 | 0.00 | 68 | 1019.7 |
| 20260902143458 | 73 | 115 | 3.0 | 9.0 | 0.00 | 0.02 | 0.00 | 67 | 1019.7 |
| 20260902143004 | 74 | 147 | 3.0 | 8.0 | 0.00 | 0.02 | 0.00 | 68 | 1019.8 |
| 20260902142507 | 74 | 142 | 3.0 | 8.0 | 0.00 | 0.02 | 0.00 | 68 | 1019.8 |
| 20260902142011 | 74 | 155 | 2.0 | 5.0 | 0.00 | 0.02 | 0.00 | 69 | 1019.6 |
| 20260902141504 | 73 | 121 | 2.0 | 8.0 | 0.00 | 0.02 | 0.00 | 70 | 1019.6 |
| 20260902141041 | 73 | 141 | 2.0 | 8.0 | 0.00 | 0.02 | 0.00 | 70 | 1019.4 |
| 20260902140510 | 73 | 161 | 3.0 | 8.0 | 0.00 | 0.02 | 0.00 | 69 | 1019.5 |
| 20260902140024 | 72 | 49 | 4.0 | 8.0 | 0.00 | 0.02 | 0.00 | 70 | 1019.3 |
| 20260902135505 | 72 | 126 | 4.0 | 8.0 | 0.00 | 0.02 | 0.00 | 71 | 1019.4 |
| 20260902135028 | 71 | 123 | 4.0 | 8.0 | 0.00 | 0.02 | 0.00 | 72 | 1019.4 |
| 20260902134502 | 71 | 90 | 3.0 | 8.0 | 0.00 | 0.02 | 0.00 | 73 | 1019.5 |
| 20260902134004 | 70 | 86 | 3.0 | 7.0 | 0.00 | 0.02 | 0.00 | 74 | 1019.4 |
| 20260902133500 | 70 | 183 | 3.0 | 7.0 | 0.00 | 0.02 | 0.00 | 74 | 1019.5 |
| 20260902133000 | 69 | 55 | 2.0 | 7.0 | 0.00 | 0.02 | 0.00 | 76 | 1019.5 |
| 20260902132505 | 69 | 104 | 1.0 | 6.0 | 0.00 | 0.02 | 0.00 | 77 | 1019.5 |
| 20260902131504 | 68 | 103 | 1.0 | 5.0 | 0.00 | 0.02 | 0.00 | 78 | 1019.3 |
| 20260902131006 | 68 | 88 | 2.0 | 7.0 | 0.00 | 0.02 | 0.00 | 77 | 1019.4 |
| 20260902130010 | 68 | 44 | 1.0 | 2.0 | 0.00 | 0.02 | 0.00 | 79 | 1019.7 |
| 20260902125505 | 68 | 37 | 1.0 | 4.0 | 0.00 | 0.02 | 0.00 | 79 | 1019.6 |
| 20260902125003 | 67 | 28 | 1.0 | 4.0 | 0.00 | 0.02 | 0.00 | 80 | 1019.5 |
| 20260902124509 | 67 | 85 | 1.0 | 2.0 | 0.00 | 0.02 | 0.00 | 81 | 1019.5 |
| 20260902123508 | 67 | 85 | 0.0 | 4.0 | 0.00 | 0.02 | 0.00 | 81 | 1019.4 |
| 20260902123007 | 67 | 85 | 1.0 | 4.0 | 0.00 | 0.02 | 0.00 | 81 | 1019.5 |
| 20260902122508 | 66 | 78 | 0.0 | 2.0 | 0.00 | 0.02 | 0.00 | 82 | 1019.5 |
| 20260902122003 | 66 | 78 | 1.0 | 4.0 | 0.00 | 0.02 | 0.00 | 82 | 1019.7 |
| 20260902121459 | 66 | 78 | 1.0 | 4.0 | 0.00 | 0.02 | 0.00 | 82 | 1019.8 |
| 20260902121004 | 66 | 101 | 0.0 | 3.0 | 0.00 | 0.02 | 0.00 | 82 | 1019.8 |
| 20260902120520 | 66 | 53 | 0.0 | 2.0 | 0.00 | 0.02 | 0.00 | 83 | 1019.8 |
| 20260902120002 | 65 | 53 | 1.0 | 2.0 | 0.00 | 0.02 | 0.00 | 83 | 1019.9 |
| 20260902115500 | 65 | 53 | 0.0 | 4.0 | 0.00 | 0.02 | 0.00 | 83 | 1019.7 |
| 20260902115002 | 65 | 53 | 0.0 | 4.0 | 0.00 | 0.02 | 0.00 | 83 | 1019.7 |
| 20260902114002 | 65 | 76 | 0.0 | 1.0 | 0.00 | 0.02 | 0.00 | 84 | 1019.5 |
| 20260902113004 | 64 | 75 | 0.0 | 4.0 | 0.00 | 0.02 | 0.00 | 84 | 1019.5 |
| 20260902112507 | 64 | 75 | 0.0 | 5.0 | 0.00 | 0.02 | 0.00 | 84 | 1019.4 |
| 20260902112001 | 64 | 76 | 0.0 | 5.0 | 0.00 | 0.02 | 0.00 | 84 | 1019.4 |
| 20260902111509 | 64 | 86 | 0.0 | 2.0 | 0.00 | 0.02 | 0.00 | 84 | 1019.4 |
| 20260902110027 | 63 | 82 | 0.0 | 5.0 | 0.00 | 0.02 | 0.00 | 84 | 1019.1 |
| 20260902105514 | 63 | 82 | 0.0 | 4.0 | 0.00 | 0.02 | 0.00 | 84 | 1019.0 |
| 20260902105005 | 63 | 83 | 0.0 | 4.0 | 0.00 | 0.02 | 0.00 | 84 | 1019.0 |
| 20260902104502 | 63 | 80 | 0.0 | 4.0 | 0.00 | 0.02 | 0.00 | 84 | 1019.0 |
| 20260902104004 | 63 | 76 | 0.0 | 2.0 | 0.00 | 0.02 | 0.00 | 84 | 1018.9 |
| 20260902103504 | 63 | 76 | 0.0 | 2.0 | 0.00 | 0.02 | 0.00 | 84 | 1018.9 |
| 20260902103009 | 63 | 77 | 0.0 | 0.0 | 0.00 | 0.02 | 0.00 | 85 | 1018.8 |
| 20260902102504 | 63 | 80 | 0.0 | 0.0 | 0.00 | 0.02 | 0.00 | 85 | 1018.8 |
| 20260902101501 | 64 | 79 | 0.0 | 2.0 | 0.00 | 0.02 | 0.00 | 85 | 1018.7 |
| 20260902101006 | 64 | 79 | 0.0 | 1.0 | 0.00 | 0.02 | 0.00 | 85 | 1018.8 |
| 20260902100501 | 64 | 83 | 0.0 | 0.0 | 0.00 | 0.02 | 0.00 | 85 | 1018.8 |
| 20260902100009 | 64 | 83 | 0.0 | 0.0 | 0.00 | 0.02 | 0.00 | 85 | 1018.6 |
| 20260902095500 | 64 | 83 | 0.0 | 2.0 | 0.00 | 0.02 | 0.00 | 86 | 1018.6 |
| 20260902094007 | 64 | 59 | 0.0 | 2.0 | 0.00 | 0.02 | 0.00 | 86 | 1018.5 |
| 20260902093503 | 64 | 42 | 0.0 | 5.0 | 0.00 | 0.02 | 0.00 | 86 | 1018.5 |
| 20260902092518 | 64 | 84 | 0.0 | 2.0 | 0.00 | 0.02 | 0.00 | 87 | 1018.4 |
| 20260902092002 | 64 | 84 | 0.0 | 2.0 | 0.00 | 0.02 | 0.00 | 87 | 1018.4 |
| 20260902091501 | 64 | 70 | 0.0 | 2.0 | 0.00 | 0.02 | 0.00 | 88 | 1018.3 |
| 20260902091028 | 64 | 109 | 0.0 | 2.0 | 0.00 | 0.02 | 0.00 | 88 | 1018.2 |
| 20260902090511 | 64 | 142 | 0.0 | 4.0 | 0.00 | 0.02 | 0.00 | 88 | 1018.3 |
| 20260902085007 | 64 | 119 | 0.0 | 6.0 | 0.00 | 0.02 | 0.00 | 89 | 1018.1 |
| 20260902084500 | 64 | 118 | 1.0 | 6.0 | 0.00 | 0.02 | 0.00 | 89 | 1018.1 |
| 20260902084029 | 64 | 107 | 0.0 | 4.0 | 0.00 | 0.02 | 0.00 | 89 | 1018.1 |
| 20260902083007 | 64 | 168 | 0.0 | 2.0 | 0.00 | 0.02 | 0.00 | 89 | 1018.2 |
| 20260902082458 | 64 | 249 | 0.0 | 5.0 | 0.00 | 0.02 | 0.00 | 89 | 1018.2 |
| 20260902082028 | 64 | 272 | 0.0 | 5.0 | 0.00 | 0.02 | 0.00 | 89 | 1018.3 |
| 20260902081504 | 64 | 255 | 0.0 | 0.0 | 0.00 | 0.02 | 0.00 | 89 | 1018.4 |
| 20260902081001 | 64 | 255 | 0.0 | 0.0 | 0.00 | 0.02 | 0.00 | 89 | 1018.4 |
| 20260902080502 | 64 | 255 | 0.0 | 0.0 | 0.00 | 0.02 | 0.00 | 89 | 1018.4 |
| 20260902080000 | 64 | 255 | 0.0 | 0.0 | 0.00 | 0.02 | 0.00 | 89 | 1018.5 |
| 20260902074001 | 63 | 243 | 0.0 | 0.0 | 0.00 | 0.02 | 0.00 | 89 | 1018.2 |
| 20260902073514 | 63 | 243 | 0.0 | 0.0 | 0.00 | 0.02 | 0.00 | 89 | 1018.2 |
| 20260902073027 | 63 | 243 | 0.0 | 0.0 | 0.00 | 0.02 | 0.00 | 88 | 1018.0 |
| 20260902072504 | 63 | 106 | 0.0 | 0.0 | 0.00 | 0.02 | 0.00 | 88 | 1017.9 |
| 20260902072025 | 63 | 104 | 0.0 | 0.0 | 0.00 | 0.02 | 0.00 | 88 | 1017.9 |
| 20260902071000 | 63 | 103 | 0.0 | 0.0 | 0.00 | 0.02 | 0.00 | 88 | 1017.8 |
| 20260902070457 | 63 | 103 | 0.0 | 0.0 | 0.00 | 0.02 | 0.00 | 88 | 1017.9 |
| 20260902070010 | 63 | 103 | 0.0 | 0.0 | 0.00 | 0.02 | 0.00 | 88 | 1017.9 |
| 20260902065522 | 63 | 102 | 0.0 | 0.0 | 0.00 | 0.02 | 0.00 | 88 | 1017.8 |
| 20260902064504 | 62 | 102 | 0.0 | 0.0 | 0.00 | 0.02 | 0.00 | 88 | 1018.0 |
| 20260902064004 | 63 | 102 | 0.0 | 0.0 | 0.00 | 0.02 | 0.00 | 88 | 1018.1 |
| 20260902062509 | 63 | 102 | 0.0 | 0.0 | 0.00 | 0.02 | 0.00 | 88 | 1018.2 |
| 20260902062028 | 62 | 102 | 0.0 | 0.0 | 0.00 | 0.02 | 0.00 | 88 | 1018.2 |
| 20260902061500 | 62 | 102 | 0.0 | 0.0 | 0.00 | 0.02 | 0.00 | 88 | 1018.3 |
| 20260902061009 | 62 | 102 | 0.0 | 0.0 | 0.00 | 0.02 | 0.00 | 88 | 1018.3 |
| 20260902060458 | 62 | 102 | 0.0 | 0.0 | 0.00 | 0.02 | 0.00 | 88 | 1018.3 |
| 20260902060004 | 62 | 102 | 0.0 | 0.0 | 0.00 | 0.02 | 0.00 | 88 | 1018.3 |
| 20260902055459 | 62 | 102 | 0.0 | 0.0 | 0.00 | 0.02 | 0.00 | 88 | 1018.2 |
| 20260902055025 | 62 | 102 | 0.0 | 0.0 | 0.00 | 0.02 | 0.00 | 88 | 1018.1 |
| 20260902054011 | 63 | 102 | 0.0 | 0.0 | 0.00 | 0.02 | 0.00 | 87 | 1017.9 |
| 20260902053514 | 63 | 102 | 0.0 | 0.0 | 0.00 | 0.02 | 0.00 | 87 | 1017.8 |
| 20260902053020 | 63 | 102 | 0.0 | 0.0 | 0.00 | 0.02 | 0.00 | 87 | 1017.9 |
| 20260902052535 | 63 | 102 | 0.0 | 0.0 | 0.00 | 0.02 | 0.00 | 87 | 1017.9 |
| 20260902052004 | 63 | 102 | 0.0 | 0.0 | 0.00 | 0.02 | 0.00 | 87 | 1018.0 |
| 20260902051533 | 63 | 102 | 0.0 | 0.0 | 0.00 | 0.02 | 0.00 | 87 | 1017.9 |
| 20260902051008 | 63 | 102 | 0.0 | 0.0 | 0.00 | 0.02 | 0.00 | 87 | 1017.7 |
| 20260902050002 | 62 | 103 | 0.0 | 0.0 | 0.00 | 0.02 | 0.00 | 87 | 1017.5 |
| 20260902045544 | 62 | 103 | 0.0 | 0.0 | 0.00 | 0.02 | 0.00 | 87 | 1017.5 |
| 20260902045003 | 62 | 103 | 0.0 | 0.0 | 0.00 | 0.02 | 0.00 | 87 | 1017.4 |
| 20260902043505 | 62 | 103 | 0.0 | 0.0 | 0.00 | 0.02 | 0.00 | 87 | 1017.4 |
| 20260902042513 | 62 | 103 | 0.0 | 0.0 | 0.00 | 0.02 | 0.00 | 86 | 1017.4 |
| 20260902042024 | 62 | 103 | 0.0 | 0.0 | 0.00 | 0.02 | 0.00 | 86 | 1017.2 |
| 20260902041458 | 62 | 104 | 0.0 | 0.0 | 0.00 | 0.02 | 0.00 | 86 | 1017.3 |
| 20260902041004 | 62 | 104 | 0.0 | 0.0 | 0.00 | 0.02 | 0.00 | 86 | 1017.2 |
| 20260902040504 | 62 | 104 | 0.0 | 0.0 | 0.00 | 0.02 | 0.00 | 86 | 1017.1 |
| 20260902040026 | 62 | 104 | 0.0 | 0.0 | 0.00 | 0.02 | 0.00 | 86 | 1017.3 |
| 20260902035515 | 62 | 104 | 0.0 | 0.0 | 0.00 | 0.02 | 0.02 | 86 | 1017.2 |
| 20260902034502 | 62 | 104 | 0.0 | 0.0 | 0.00 | 0.02 | 0.02 | 85 | 1017.2 |
| 20260902034007 | 62 | 104 | 0.0 | 0.0 | 0.00 | 0.02 | 0.02 | 85 | 1017.1 |
| 20260902033501 | 62 | 104 | 0.0 | 0.0 | 0.00 | 0.02 | 0.02 | 85 | 1017.3 |
| 20260902033005 | 62 | 104 | 0.0 | 0.0 | 0.00 | 0.02 | 0.02 | 85 | 1017.3 |
| 20260902032508 | 62 | 104 | 0.0 | 0.0 | 0.00 | 0.02 | 0.02 | 85 | 1017.2 |
| 20260902031504 | 62 | 104 | 0.0 | 0.0 | 0.00 | 0.02 | 0.02 | 85 | 1017.2 |
| 20260902030507 | 62 | 104 | 0.0 | 0.0 | 0.00 | 0.02 | 0.02 | 85 | 1017.2 |
| 20260902030027 | 62 | 104 | 0.0 | 0.0 | 0.00 | 0.02 | 0.02 | 85 | 1017.3 |
| 20260902025532 | 62 | 104 | 0.0 | 0.0 | 0.00 | 0.02 | 0.02 | 85 | 1017.2 |
| 20260902025025 | 62 | 104 | 0.0 | 0.0 | 0.00 | 0.02 | 0.02 | 84 | 1017.3 |
| 20260902024507 | 62 | 104 | 0.0 | 0.0 | 0.00 | 0.02 | 0.02 | 84 | 1017.2 |
| 20260902024005 | 62 | 104 | 0.0 | 0.0 | 0.00 | 0.02 | 0.02 | 84 | 1017.0 |
| 20260902023459 | 62 | 104 | 0.0 | 0.0 | 0.00 | 0.02 | 0.02 | 84 | 1016.9 |
| 20260902023006 | 62 | 104 | 0.0 | 0.0 | 0.00 | 0.02 | 0.02 | 84 | 1016.9 |
| 20260902022517 | 62 | 104 | 0.0 | 0.0 | 0.00 | 0.02 | 0.02 | 84 | 1017.0 |
| 20260902022006 | 62 | 104 | 0.0 | 0.0 | 0.00 | 0.02 | 0.02 | 84 | 1017.0 |
| 20260902021546 | 62 | 104 | 0.0 | 0.0 | 0.00 | 0.02 | 0.02 | 84 | 1017.0 |
| 20260902020505 | 62 | 104 | 0.0 | 0.0 | 0.00 | 0.02 | 0.02 | 84 | 1016.8 |
| 20260902020005 | 62 | 104 | 0.0 | 0.0 | 0.00 | 0.02 | 0.02 | 84 | 1016.8 |
| 20260902015001 | 62 | 104 | 0.0 | 0.0 | 0.00 | 0.02 | 0.02 | 85 | 1016.7 |
| 20260902014001 | 63 | 104 | 0.0 | 0.0 | 0.00 | 0.02 | 0.02 | 85 | 1016.8 |
| 20260902013516 | 63 | 104 | 0.0 | 0.0 | 0.00 | 0.02 | 0.02 | 85 | 1016.8 |
| 20260902013020 | 63 | 104 | 0.0 | 0.0 | 0.00 | 0.02 | 0.02 | 85 | 1016.9 |
| 20260902012501 | 63 | 104 | 0.0 | 0.0 | 0.00 | 0.02 | 0.02 | 85 | 1016.9 |
| 20260902012002 | 63 | 104 | 0.0 | 0.0 | 0.00 | 0.02 | 0.02 | 85 | 1017.0 |
| 20260902011512 | 63 | 104 | 0.0 | 0.0 | 0.00 | 0.02 | 0.02 | 85 | 1017.0 |
| 20260902011021 | 63 | 104 | 0.0 | 0.0 | 0.00 | 0.02 | 0.02 | 85 | 1016.9 |
| 20260902005505 | 63 | 104 | 0.0 | 0.0 | 0.00 | 0.02 | 0.02 | 85 | 1016.7 |
| 20260902005011 | 63 | 104 | 0.0 | 0.0 | 0.00 | 0.02 | 0.02 | 85 | 1016.7 |
| 20260902004507 | 63 | 104 | 0.0 | 0.0 | 0.00 | 0.02 | 0.02 | 85 | 1016.7 |
| 20260902004003 | 64 | 104 | 0.0 | 0.0 | 0.00 | 0.02 | 0.02 | 85 | 1016.8 |
| 20260902003528 | 64 | 104 | 0.0 | 0.0 | 0.00 | 0.02 | 0.02 | 85 | 1016.8 |
| 20260902003020 | 64 | 104 | 0.0 | 0.0 | 0.00 | 0.02 | 0.02 | 85 | 1016.8 |
| 20260902002503 | 64 | 104 | 0.0 | 0.0 | 0.00 | 0.02 | 0.02 | 85 | 1016.9 |
| 20260902001006 | 64 | 104 | 0.0 | 0.0 | 0.00 | 0.02 | 0.02 | 85 | 1016.8 |
| 20260902000512 | 64 | 104 | 0.0 | 0.0 | 0.00 | 0.02 | 0.02 | 85 | 1016.7 |
| 20260902000025 | 64 | 104 | 0.0 | 0.0 | 0.00 | 0.02 | 0.02 | 85 | 1016.6 |
| 20260901235046 | 64 | 104 | 0.0 | 0.0 | 0.00 | 0.02 | 0.02 | 85 | 1016.6 |
| 20260901234518 | 64 | 104 | 0.0 | 0.0 | 0.00 | 0.02 | 0.02 | 85 | 1016.5 |
| 20260901234009 | 64 | 104 | 0.0 | 0.0 | 0.00 | 0.02 | 0.02 | 85 | 1016.4 |
| 20260901233503 | 64 | 104 | 0.0 | 2.0 | 0.00 | 0.02 | 0.02 | 85 | 1016.5 |
| 20260901233011 | 64 | 105 | 0.0 | 4.0 | 0.00 | 0.02 | 0.02 | 85 | 1016.4 |
| 20260901232513 | 64 | 105 | 0.0 | 4.0 | 0.00 | 0.02 | 0.02 | 85 | 1016.5 |
| 20260901232000 | 64 | 105 | 0.0 | 3.0 | 0.00 | 0.02 | 0.02 | 85 | 1016.4 |
| 20260901231507 | 64 | 96 | 0.0 | 3.0 | 0.00 | 0.02 | 0.02 | 85 | 1016.4 |
| 20260901231020 | 64 | 96 | 0.0 | 4.0 | 0.00 | 0.02 | 0.02 | 85 | 1016.3 |
| 20260901230506 | 64 | 112 | 1.0 | 5.0 | 0.00 | 0.02 | 0.02 | 84 | 1016.4 |
| 20260901225521 | 64 | 113 | 0.0 | 4.0 | 0.00 | 0.02 | 0.02 | 84 | 1016.4 |
| 20260901225002 | 64 | 115 | 0.0 | 4.0 | 0.00 | 0.02 | 0.02 | 84 | 1016.4 |
| 20260901224024 | 65 | 117 | 0.0 | 4.0 | 0.00 | 0.02 | 0.02 | 84 | 1016.3 |
| 20260901223502 | 65 | 167 | 0.0 | 1.0 | 0.00 | 0.02 | 0.02 | 84 | 1016.4 |
| 20260901223020 | 65 | 168 | 0.0 | 1.0 | 0.00 | 0.02 | 0.02 | 84 | 1016.5 |
| 20260901222519 | 65 | 168 | 0.0 | 2.0 | 0.00 | 0.02 | 0.02 | 84 | 1016.5 |
| 20260901221505 | 65 | 168 | 1.0 | 5.0 | 0.00 | 0.02 | 0.02 | 84 | 1016.6 |